[[{"header":{"parameterUnit":"m.s-1","parameterCategory":2,"la1":30.2991,"la2":30.254,"lo1":-89.0895,"lo2":-89.0444,"dy":0.0017,"dx":0.0017,"nx":28,"ny":28,"refTime":"2026-02-12T03:00:00:Z","depth":"0","parameterNumber":2,"parameterNumberName":"U-component_of_CURRENTS"},"data":[0,0,0,0,0,0,0,0,0,0,0,0,0,0,0,0,0,0,0,0,0,0,0,0,0,0,0,0,0,0,0,0,0,0,0,0,0,0,0,0,0,0,0,0,0,0,0,0,0,0,0,0,0,0,0,0,0,0,-0.2711,-0.2711,0,-0.2721,-0.2721,-0.2721,-0.2684,-0.2683,-0.2682,-0.2681,-0.2656,-0.2656,-0.2657,0,0,0,0,0,0,0,0,0,0,0,0,0,-0.2657,-0.2658,-0.2711,-0.2711,-0.2711,-0.2721,-0.2721,-0.2721,-0.2684,-0.2683,-0.2682,-0.2681,-0.2656,-0.2656,-0.2657,0,0,0,0,0,0,0,0,0,0,0,0,0,-0.2673,-0.2659,-0.2711,-0.2696,-0.2695,-0.2721,-0.2721,-0.2721,-0.2684,-0.2683,-0.2682,-0.2681,-0.2656,-0.2656,-0.2657,-0.2684,0,0,-0.2657,-0.2657,0,0,0,0,0,0,0,0,-0.2672,-0.2675,-0.2698,-0.2697,-0.2696,-0.2702,-0.2693,-0.2707,-0.2685,-0.2686,-0.2681,-0.268,-0.2671,-0.267,-0.2672,-0.2683,-0.2682,-0.2657,-0.2657,-0.2658,-0.2658,0,0,0,0,0,0,0,-0.2671,-0.2674,-0.2712,-0.2698,-0.2697,-0.2689,-0.2689,-0.2695,-0.2683,-0.2686,-0.2684,-0.2689,-0.267,-0.2672,-0.2671,-0.2681,-0.2657,-0.2657,-0.2658,-0.2658,-0.2676,-0.2676,0,0,0,0,0,0,-0.2677,-0.2673,-0.2712,-0.2713,-0.2684,-0.2691,-0.2691,-0.2699,-0.2684,-0.2681,-0.269,-0.2688,-0.2672,-0.267,-0.267,-0.2681,-0.2658,-0.2658,-0.2658,-0.2676,-0.2676,-0.2676,0,0,0,0,0,0,-0.2676,-0.268,-0.2711,-0.2695,-0.2698,-0.2693,-0.2703,-0.27,-0.2697,-0.2688,-0.2684,-0.2689,-0.2671,-0.2669,-0.267,-0.268,-0.2658,-0.2658,-0.2675,-0.2676,-0.2676,-0.2716,0,0,0,0,0,0,-0.2674,-0.268,-0.2683,-0.2695,-0.27,-0.2729,-0.2704,-0.2702,-0.2704,-0.27,-0.2686,-0.2683,-0.267,-0.267,-0.267,-0.268,-0.2658,-0.2675,-0.2675,-0.2676,-0.2714,-0.2718,-0.2721,0,0,0,0,0,-0.2672,-0.2687,-0.2683,-0.2688,-0.2706,-0.273,-0.2732,-0.2722,-0.2706,-0.2712,-0.2696,-0.2683,-0.2674,-0.2671,-0.2671,-0.2681,-0.2674,-0.2675,-0.2676,-0.2713,-0.2717,-0.2721,0,0,0,0,0,0,-0.2663,-0.2685,-0.2681,-0.27,-0.2715,-0.2725,-0.2729,-0.2726,-0.272,-0.271,-0.2693,-0.269,-0.2695,-0.2683,-0.268,-0.2687,-0.267,-0.2671,-0.2698,-0.2702,-0.2705,-0.2701,-0.2658,0,0,0,0,0,-0.2666,-0.2677,-0.2699,-0.2711,-0.2721,-0.2725,-0.2731,-0.273,-0.273,-0.2726,-0.2716,-0.2704,-0.2701,-0.2697,-0.2695,-0.2703,-0.2675,-0.2707,-0.271,-0.2713,-0.2709,-0.268,-0.268,-0.2679,-0.2679,-0.2679,0,0,-0.2664,-0.2677,-0.2682,-0.2709,-0.2715,-0.2736,-0.2724,-0.274,-0.275,-0.2726,-0.2728,-0.272,-0.2707,-0.2713,-0.2714,-0.2702,-0.2698,-0.2714,-0.2717,-0.2711,-0.2681,-0.268,-0.268,-0.268,-0.2679,-0.2679,0,0,-0.2669,-0.268,-0.2692,-0.2712,-0.2733,-0.2742,-0.2749,-0.2765,-0.2761,-0.2773,-0.2754,-0.2748,-0.2749,-0.2737,-0.2732,-0.2754,-0.2721,-0.2755,-0.2766,-0.2738,-0.2737,-0.2737,-0.2698,-0.2693,-0.2752,-0.2752,-0.2752,0,-0.2665,-0.2683,-0.27,-0.2722,-0.2734,-0.2747,-0.2765,-0.2776,-0.2786,-0.2783,-0.2775,-0.2766,-0.2758,-0.2756,-0.2762,-0.2761,-0.2735,-0.2753,-0.2742,-0.274,-0.2739,-0.2699,-0.2694,-0.2754,-0.2754,-0.2754,-0.2754,0,-0.2681,-0.2698,-0.271,-0.2737,-0.2757,-0.2776,-0.2801,-0.2812,-0.2809,-0.2812,-0.2811,-0.2801,-0.2788,-0.2792,-0.2785,-0.2776,-0.2758,-0.2753,-0.2731,-0.2741,-0.2699,-0.2692,-0.2757,-0.2757,-0.2756,-0.2755,0,0,-0.2656,-0.271,-0.271,-0.2721,-0.2765,-0.2779,-0.2807,-0.2825,-0.2829,-0.2837,-0.283,-0.2833,-0.282,-0.2812,-0.2804,-0.2785,-0.2757,-0.2767,-0.2765,-0.2728,-0.2684,-0.2605,-0.259,-0.2751,-0.275,-0.2749,-0.2657,0,-0.2655,-0.2689,-0.2721,-0.2747,-0.2763,-0.2794,-0.2817,-0.2837,-0.2845,-0.2847,-0.2837,-0.2833,-0.2831,-0.2822,-0.2805,-0.2776,-0.2742,-0.2781,-0.2679,-0.2676,-0.2604,-0.2581,-0.2484,-0.2387,-0.265,-0.2649,-0.2648,0,-0.2646,-0.2671,-0.2697,-0.2741,-0.2751,-0.2772,-0.2795,-0.2821,-0.2839,-0.2844,-0.2842,-0.2837,-0.2822,-0.2813,-0.2755,-0.2781,-0.2729,-0.2701,-0.2696,-0.2603,-0.2585,-0.242,-0.2365,-0.2346,-0.2638,-0.2639,-0.2639,0,-0.2591,-0.2646,-0.2659,-0.2677,-0.2736,-0.2745,-0.2773,-0.2805,-0.282,-0.2835,-0.284,-0.2827,-0.2811,-0.2766,-0.2714,-0.2731,-0.2635,-0.2648,-0.2522,-0.2515,-0.24,-0.2385,-0.2311,-0.258,-0.258,-0.258,-0.2581,0,-0.2562,-0.2569,-0.2632,-0.2638,-0.2651,-0.2708,-0.2719,-0.275,-0.2787,-0.2791,-0.2825,-0.2815,-0.2798,-0.275,-0.2702,-0.2584,-0.2617,-0.2507,-0.2481,-0.2411,-0.2398,-0.235,-0.238,-0.2577,-0.2578,-0.2578,-0.2579,0,-0.2484,-0.2531,-0.2547,-0.2607,-0.2621,-0.2626,-0.2685,-0.2692,-0.2748,-0.2754,-0.2758,-0.279,-0.2731,-0.2692,-0.2609,-0.255,-0.2408,-0.2403,-0.2317,-0.2281,-0.2149,-0.2185,-0.2081,-0.2017,-0.2249,-0.2247,-0.2245,0,-0.2441,-0.2441,-0.2499,-0.2503,-0.2523,-0.255,-0.2564,-0.2645,-0.2661,-0.2725,-0.2713,-0.2692,-0.2637,-0.2502,-0.2398,-0.2272,-0.2286,-0.2116,-0.2128,-0.2109,-0.2131,-0.2169,-0.2127,-0.1992,-0.1988,-0.1985,-0.1982,0,-0.2346,-0.237,-0.2382,-0.2397,-0.2411,-0.2432,-0.2465,-0.2479,-0.2566,-0.2577,-0.2572,-0.2539,-0.2441,-0.2278,-0.2141,-0.206,-0.207,-0.2042,-0.2042,-0.193,-0.1946,-0.1882,-0.2094,-0.1952,-0.1955,-0.1957,-0.1959,-0.196,-0.2256,-0.2245,-0.2263,-0.2261,-0.2281,-0.2279,-0.2249,-0.2302,-0.2302,-0.2292,-0.2365,-0.2286,-0.2201,-0.1992,-0.1901,-0.1746,-0.1827,-0.17,-0.1746,-0.1787,-0.172,-0.186,-0.1682,-0.1683,-0.1684,-0.1685,-0.1686,0,-0.2125,-0.2123,-0.2122,-0.2115,-0.2078,-0.2136,-0.2144,-0.2088,-0.2032,-0.2081,-0.2043,-0.1976,-0.1807,-0.1744,-0.1591,-0.1491,-0.1459,-0.1462,-0.1505,-0.1475,-0.1594,-0.1577,-0.1344,-0.1344,-0.1344,-0.1344,-0.1344,-0.1344,-0.2056,-0.2003,-0.2004,-0.1898,-0.1889,-0.1787,-0.1755,-0.1701,-0.1699,-0.1634,-0.1637,-0.166,-0.1626,-0.1671,-0.1501,-0.1403,-0.1376,-0.1325,-0.1357,-0.1472,-0.1499,-0.1525,-0.1514,-0.1272,-0.1272,-0.1175,-0.1174,-0.1174]},{"header":{"parameterUnit":"m.s-1","parameterCategory":2,"la1":30.2991,"la2":30.254,"lo1":-89.0895,"lo2":-89.0444,"dy":0.0017,"dx":0.0017,"nx":28,"ny":28,"refTime":"2026-02-12T03:00:00:Z","depth":"0","parameterNumber":3,"parameterNumberName":"V-component_of_CURRENTS"},"data":[0,0,0,0,0,0,0,0,0,0,0,0,0,0,0,0,0,0,0,0,0,0,0,0,0,0,0,0,0,0,0,0,0,0,0,0,0,0,0,0,0,0,0,0,0,0,0,0,0,0,0,0,0,0,0,0,0,0,-0.0378,-0.0377,0,-0.0306,-0.0305,-0.0304,-0.0255,-0.0255,-0.0255,-0.0255,-0.015,-0.0148,-0.0145,0,0,0,0,0,0,0,0,0,0,0,0,0,-0.0419,-0.0419,-0.0378,-0.0377,-0.0376,-0.0306,-0.0305,-0.0304,-0.0256,-0.0255,-0.0255,-0.0255,-0.0151,-0.0148,-0.0145,0,0,0,0,0,0,0,0,0,0,0,0,0,-0.0379,-0.0419,-0.0378,-0.0344,-0.0341,-0.0306,-0.0305,-0.0304,-0.0256,-0.0255,-0.0255,-0.0255,-0.0152,-0.0148,-0.0144,-0.0128,0,0,-0.0133,-0.0131,0,0,0,0,0,0,0,0,-0.0381,-0.0377,-0.035,-0.0347,-0.0343,-0.029,-0.0281,-0.0244,-0.0256,-0.0287,-0.0255,-0.0254,-0.0195,-0.0188,-0.0174,-0.0123,-0.0119,-0.0132,-0.013,-0.0128,-0.0127,0,0,0,0,0,0,0,-0.0384,-0.038,-0.0348,-0.0349,-0.0345,-0.0315,-0.0309,-0.0274,-0.0242,-0.0284,-0.0281,-0.0275,-0.0192,-0.0178,-0.0171,-0.0117,-0.0132,-0.0129,-0.0127,-0.0125,-0.0045,-0.0046,0,0,0,0,0,0,-0.0398,-0.0383,-0.035,-0.0346,-0.0363,-0.0314,-0.0308,-0.0306,-0.0243,-0.0234,-0.0275,-0.0273,-0.0184,-0.0175,-0.0167,-0.0141,-0.0128,-0.0125,-0.0123,-0.0045,-0.0045,-0.0046,0,0,0,0,0,0,-0.04,-0.0396,-0.0353,-0.0363,-0.0356,-0.0315,-0.0313,-0.0305,-0.0291,-0.0237,-0.0227,-0.0269,-0.0184,-0.0172,-0.0138,-0.0136,-0.0123,-0.012,-0.0045,-0.0045,-0.0045,-0.009,0,0,0,0,0,0,-0.0401,-0.0397,-0.0402,-0.0365,-0.0356,-0.0339,-0.0313,-0.0304,-0.0288,-0.0284,-0.0228,-0.0218,-0.0182,-0.0144,-0.0134,-0.0131,-0.0117,-0.0045,-0.0045,-0.0045,-0.0089,-0.0092,-0.0095,0,0,0,0,0,-0.0403,-0.0414,-0.0403,-0.0399,-0.0363,-0.0339,-0.0332,-0.03,-0.0289,-0.0285,-0.0247,-0.022,-0.0139,-0.0141,-0.0129,-0.0125,-0.0045,-0.0045,-0.0045,-0.0087,-0.0091,-0.0095,0,0,0,0,0,0,-0.0432,-0.0409,-0.0396,-0.0398,-0.0373,-0.0332,-0.0327,-0.0306,-0.0273,-0.027,-0.0219,-0.0206,-0.0175,-0.0147,-0.015,-0.0104,-0.0089,-0.0087,-0.0124,-0.0128,-0.0131,-0.0146,-0.0113,0,0,0,0,0,-0.0443,-0.0445,-0.0413,-0.0414,-0.0406,-0.0368,-0.0354,-0.0334,-0.03,-0.0286,-0.0246,-0.0205,-0.0168,-0.0147,-0.0111,-0.0085,-0.0048,-0.0076,-0.008,-0.0082,-0.0087,-0.0032,-0.0031,-0.0047,-0.0047,-0.0047,0,0,-0.0453,-0.0441,-0.0441,-0.0421,-0.0399,-0.0394,-0.0359,-0.0345,-0.0336,-0.0279,-0.0256,-0.0214,-0.0164,-0.0134,-0.0118,-0.011,-0.0058,-0.0083,-0.0086,-0.0089,-0.0032,-0.0031,-0.0029,-0.0047,-0.0047,-0.0047,0,0,-0.0482,-0.0467,-0.0481,-0.0466,-0.0443,-0.0416,-0.0416,-0.0378,-0.0356,-0.0329,-0.0285,-0.0244,-0.0193,-0.0151,-0.0125,-0.0126,-0.0077,-0.0117,-0.0142,-0.0089,-0.0087,-0.0085,-0.0033,-0.0025,-0.0118,-0.0119,-0.0119,0,-0.0498,-0.0512,-0.048,-0.0489,-0.0482,-0.0432,-0.0443,-0.0412,-0.0366,-0.0347,-0.0331,-0.0244,-0.02,-0.0154,-0.0154,-0.0132,-0.0096,-0.0131,-0.0093,-0.009,-0.0087,-0.0034,-0.0025,-0.0121,-0.012,-0.012,-0.012,0,-0.0538,-0.0547,-0.0553,-0.0549,-0.0534,-0.0535,-0.0492,-0.0471,-0.0438,-0.0401,-0.035,-0.0285,-0.0235,-0.0212,-0.0181,-0.014,-0.0119,-0.0103,-0.0084,-0.0088,-0.0032,-0.0022,-0.0124,-0.0123,-0.0122,-0.0122,0,0,-0.0579,-0.0584,-0.0586,-0.0598,-0.0569,-0.0563,-0.0543,-0.0509,-0.0495,-0.0437,-0.0409,-0.0335,-0.0294,-0.0263,-0.0211,-0.0162,-0.0105,-0.0131,-0.0127,-0.0081,0.0014,0.0064,0.008,-0.0082,-0.0081,-0.008,0.0046,0,-0.0622,-0.0664,-0.0645,-0.067,-0.0688,-0.0636,-0.0622,-0.0581,-0.053,-0.0488,-0.0406,-0.0359,-0.0314,-0.0287,-0.0232,-0.0136,-0.0083,-0.0141,0.0013,0.0017,0.0061,0.0092,0.0145,0.0265,0.0056,0.0058,0.0059,0,-0.067,-0.0694,-0.0737,-0.074,-0.074,-0.074,-0.0706,-0.0685,-0.0605,-0.0564,-0.0496,-0.0427,-0.0341,-0.0306,-0.0148,-0.0188,-0.0097,-0.0021,-0.0013,0.0055,0.0086,0.0236,0.0291,0.0447,0.0074,0.0073,0.0072,0,-0.0728,-0.0754,-0.0793,-0.0796,-0.0789,-0.079,-0.0775,-0.0711,-0.0691,-0.0607,-0.0576,-0.0466,-0.0401,-0.0281,-0.012,-0.0134,0.006,0.0063,0.0196,0.0201,0.0287,0.0297,0.0511,0.0173,0.0172,0.0172,0.0172,0,-0.0787,-0.0816,-0.0827,-0.0851,-0.0886,-0.0852,-0.0859,-0.0822,-0.0762,-0.0731,-0.0622,-0.0563,-0.0391,-0.0255,-0.0126,0.0075,0.0061,0.0203,0.0242,0.0273,0.028,0.0452,0.0504,0.0177,0.0176,0.0175,0.0174,0,-0.0846,-0.0853,-0.0902,-0.0915,-0.092,-0.0944,-0.0929,-0.0925,-0.0856,-0.081,-0.0784,-0.0625,-0.0438,-0.0254,-0.0035,0.0079,0.0366,0.0328,0.0354,0.0394,0.0644,0.0689,0.0927,0.1027,0.0488,0.049,0.0492,0,-0.0881,-0.0915,-0.0961,-0.0993,-0.1003,-0.1026,-0.1037,-0.0984,-0.0968,-0.0839,-0.0818,-0.0625,-0.047,-0.0125,0.0118,0.0372,0.0483,0.0557,0.0539,0.0683,0.0763,0.079,0.0859,0.0641,0.0643,0.0646,0.0648,0,-0.0944,-0.096,-0.1,-0.1074,-0.1105,-0.1134,-0.1137,-0.1141,-0.1057,-0.0983,-0.0841,-0.07,-0.0346,-0.0015,0.0317,0.0469,0.0686,0.0611,0.0766,0.0909,0.0949,0.1056,0.0526,0.0668,0.0666,0.0665,0.0663,0.0663,-0.0979,-0.1029,-0.1083,-0.1147,-0.1188,-0.1222,-0.1232,-0.12,-0.115,-0.1004,-0.0865,-0.0587,-0.0127,0.0362,0.0534,0.0924,0.0874,0.1036,0.1083,0.11,0.1195,0.0707,0.0883,0.0882,0.0882,0.0881,0.088,0,-0.102,-0.1075,-0.1148,-0.1218,-0.127,-0.127,-0.1278,-0.1241,-0.1162,-0.0973,-0.0786,-0.0217,0.0231,0.0646,0.117,0.1381,0.1425,0.1487,0.155,0.16,0.1188,0.1193,0.1438,0.1438,0.1438,0.1438,0.1437,0.1437,-0.1042,-0.1123,-0.1165,-0.1262,-0.1307,-0.1331,-0.1327,-0.1235,-0.1084,-0.0734,-0.038,-0.0077,0.0531,0.1292,0.1765,0.1811,0.1992,0.1985,0.2072,0.179,0.1751,0.1714,0.1735,0.2089,0.209,0.2484,0.2488,0.249]}],[{"header":{"parameterUnit":"m.s-1","parameterCategory":2,"la1":30.2991,"la2":30.254,"lo1":-89.0895,"lo2":-89.0444,"dy":0.0017,"dx":0.0017,"nx":28,"ny":28,"refTime":"2026-02-12T03:00:00:Z","depth":"2","parameterNumber":2,"parameterNumberName":"U-component_of_CURRENTS"},"data":[0,0,0,0,0,0,0,0,0,0,0,0,0,0,0,0,0,0,0,0,0,0,0,0,0,0,0,0,0,0,0,0,0,0,0,0,0,0,0,0,0,0,0,0,0,0,0,0,0,0,0,0,0,0,0,0,0,0,-0.2333,-0.2334,0,-0.2358,-0.2359,-0.2359,-0.2335,-0.2335,-0.2334,-0.2333,-0.2331,-0.2332,-0.2332,0,0,0,0,0,0,0,0,0,0,0,0,0,-0.2275,-0.2276,-0.2333,-0.2334,-0.2334,-0.2358,-0.2359,-0.2359,-0.2336,-0.2335,-0.2334,-0.2333,-0.2331,-0.2331,-0.2332,0,0,0,0,0,0,0,0,0,0,0,0,0,-0.2299,-0.2276,-0.2333,-0.2327,-0.2327,-0.2358,-0.2359,-0.2359,-0.2336,-0.2335,-0.2333,-0.2332,-0.233,-0.2331,-0.2332,-0.2362,0,0,-0.2335,-0.2336,0,0,0,0,0,0,0,0,-0.2297,-0.23,-0.2327,-0.2327,-0.2327,-0.2344,-0.2337,-0.2359,-0.2336,-0.233,-0.2333,-0.2332,-0.2335,-0.2335,-0.234,-0.2361,-0.2361,-0.2335,-0.2336,-0.2336,-0.2337,0,0,0,0,0,0,0,-0.2296,-0.2299,-0.2341,-0.2328,-0.2328,-0.2326,-0.2328,-0.2341,-0.2337,-0.2331,-0.233,-0.2336,-0.2334,-0.234,-0.234,-0.2361,-0.2335,-0.2336,-0.2337,-0.2337,-0.2384,-0.2385,0,0,0,0,0,0,-0.2297,-0.2298,-0.2341,-0.2342,-0.2311,-0.2329,-0.233,-0.2338,-0.2337,-0.2337,-0.2337,-0.2335,-0.2338,-0.2339,-0.234,-0.2367,-0.2336,-0.2337,-0.2338,-0.2384,-0.2384,-0.2385,0,0,0,0,0,0,-0.2296,-0.2301,-0.234,-0.2322,-0.2327,-0.2331,-0.234,-0.234,-0.2344,-0.2342,-0.2341,-0.2341,-0.2338,-0.2339,-0.235,-0.2367,-0.2338,-0.2339,-0.2383,-0.2384,-0.2385,-0.2426,0,0,0,0,0,0,-0.2294,-0.23,-0.2305,-0.2322,-0.2328,-0.2362,-0.2341,-0.2341,-0.235,-0.2348,-0.2346,-0.2344,-0.2337,-0.2349,-0.2351,-0.2368,-0.2339,-0.2382,-0.2383,-0.2384,-0.2423,-0.2428,-0.2432,0,0,0,0,0,-0.2292,-0.2306,-0.2305,-0.231,-0.2335,-0.2363,-0.2366,-0.2363,-0.2352,-0.2361,-0.2355,-0.2344,-0.2358,-0.2351,-0.2353,-0.237,-0.2381,-0.2383,-0.2384,-0.2422,-0.2427,-0.2432,0,0,0,0,0,0,-0.2281,-0.2306,-0.2305,-0.2324,-0.2343,-0.236,-0.2368,-0.2369,-0.2373,-0.2367,-0.2358,-0.2357,-0.2374,-0.2367,-0.2359,-0.2386,-0.2367,-0.2369,-0.2394,-0.2399,-0.2403,-0.2401,-0.234,0,0,0,0,0,-0.2283,-0.2297,-0.2322,-0.2335,-0.2347,-0.2358,-0.2368,-0.2371,-0.2379,-0.238,-0.238,-0.2378,-0.2385,-0.2387,-0.2393,-0.2412,-0.2389,-0.2422,-0.2426,-0.243,-0.2429,-0.2413,-0.2416,-0.239,-0.239,-0.239,0,0,-0.2282,-0.2297,-0.2304,-0.2334,-0.2345,-0.2371,-0.2361,-0.2382,-0.2399,-0.2381,-0.2398,-0.2398,-0.2394,-0.2412,-0.2419,-0.2406,-0.2423,-0.2432,-0.2435,-0.2432,-0.2415,-0.2418,-0.242,-0.2391,-0.2391,-0.2391,0,0,-0.229,-0.2302,-0.2317,-0.2339,-0.2366,-0.2379,-0.2388,-0.2412,-0.2416,-0.2439,-0.2427,-0.2433,-0.2448,-0.2445,-0.2446,-0.2478,-0.2449,-0.2482,-0.2499,-0.2484,-0.2486,-0.2487,-0.2453,-0.2451,-0.248,-0.248,-0.248,0,-0.2286,-0.2308,-0.2326,-0.2351,-0.2368,-0.2385,-0.2409,-0.2427,-0.2449,-0.2454,-0.2447,-0.2463,-0.2462,-0.2477,-0.2486,-0.2487,-0.2466,-0.2482,-0.2489,-0.249,-0.2491,-0.2455,-0.2452,-0.2482,-0.2482,-0.2482,-0.2481,0,-0.2306,-0.2327,-0.2341,-0.2375,-0.2399,-0.2423,-0.2455,-0.2475,-0.2482,-0.2492,-0.251,-0.2509,-0.2512,-0.2519,-0.2514,-0.2524,-0.2503,-0.2499,-0.2476,-0.2496,-0.2457,-0.2453,-0.2485,-0.2484,-0.2484,-0.2483,0,0,-0.2283,-0.2342,-0.2345,-0.2363,-0.2413,-0.2432,-0.2471,-0.2502,-0.2517,-0.2536,-0.2547,-0.2564,-0.2556,-0.2556,-0.2552,-0.2543,-0.2531,-0.2526,-0.2524,-0.249,-0.2482,-0.2404,-0.2392,-0.2529,-0.2529,-0.2529,-0.2449,0,-0.2287,-0.2329,-0.2363,-0.2402,-0.2424,-0.2461,-0.2494,-0.2525,-0.2546,-0.2564,-0.2566,-0.2576,-0.2573,-0.2573,-0.2567,-0.2547,-0.2525,-0.2552,-0.2469,-0.2466,-0.2393,-0.2386,-0.2226,-0.2136,-0.2446,-0.2445,-0.2444,0,-0.2285,-0.2315,-0.2353,-0.2408,-0.2421,-0.245,-0.2493,-0.2528,-0.2564,-0.2578,-0.2591,-0.2593,-0.2595,-0.2584,-0.2549,-0.2567,-0.2525,-0.2501,-0.2498,-0.2407,-0.2381,-0.2168,-0.2117,-0.2438,-0.2438,-0.2439,-0.2439,0,-0.2238,-0.2303,-0.2327,-0.2348,-0.2418,-0.2437,-0.2473,-0.2521,-0.2545,-0.2582,-0.2594,-0.26,-0.2596,-0.2564,-0.2522,-0.2535,-0.2467,-0.2473,-0.2357,-0.235,-0.2187,-0.2166,-0.2428,-0.2428,-0.2429,-0.2429,-0.2429,0,-0.2218,-0.2235,-0.2306,-0.2318,-0.2345,-0.2407,-0.2437,-0.2478,-0.2528,-0.2544,-0.259,-0.2592,-0.2592,-0.2558,-0.2517,-0.2418,-0.2456,-0.2349,-0.2324,-0.2195,-0.2177,-0.2423,-0.2424,-0.2426,-0.2426,-0.2427,-0.2428,0,-0.215,-0.2202,-0.223,-0.2301,-0.2321,-0.2337,-0.2409,-0.2427,-0.2494,-0.2516,-0.2526,-0.2574,-0.2533,-0.2508,-0.2448,-0.2394,-0.2319,-0.2268,-0.211,-0.2067,-0.2212,-0.2216,-0.2132,-0.2128,-0.2126,-0.2123,-0.2121,0,-0.2116,-0.2124,-0.2193,-0.2204,-0.2231,-0.2272,-0.2294,-0.2385,-0.2408,-0.249,-0.2485,-0.2485,-0.244,-0.2336,-0.2245,-0.2134,-0.2218,-0.1931,-0.1928,-0.2198,-0.2182,-0.219,-0.2198,-0.1721,-0.1716,-0.1712,-0.1709,0,-0.2039,-0.2064,-0.2085,-0.211,-0.2134,-0.2165,-0.2209,-0.2225,-0.2322,-0.2342,-0.2349,-0.2325,-0.2251,-0.2071,-0.1955,-0.1879,-0.1943,-0.1841,-0.2147,-0.1832,-0.1807,-0.1793,-0.1814,-0.1671,-0.1675,-0.1677,-0.1679,-0.1681,-0.1963,-0.1957,-0.1983,-0.1991,-0.2019,-0.2023,-0.2,-0.2055,-0.2063,-0.2055,-0.2137,-0.2039,-0.2016,-0.1747,-0.1633,-0.1546,-0.1684,-0.161,-0.1624,-0.1643,-0.162,-0.1593,-0.1411,-0.1413,-0.1415,-0.1416,-0.1418,0,-0.1851,-0.1853,-0.1859,-0.1862,-0.1833,-0.1894,-0.1907,-0.1854,-0.1802,-0.1822,-0.1789,-0.1589,-0.146,-0.1439,-0.1242,-0.1195,-0.1195,-0.1148,-0.1156,-0.1194,-0.1227,-0.1186,-0.086,-0.0858,-0.0856,-0.0855,0,0,-0.1792,-0.1749,-0.1749,-0.166,-0.166,-0.1573,-0.1544,-0.1489,-0.1464,-0.1364,-0.1309,-0.1389,-0.1405,-0.1142,-0.1072,-0.0934,-0.1055,-0.0883,-0.1332,-0.1381,-0.1412,-0.1494,-0.1472,0,0,0,0,0]},{"header":{"parameterUnit":"m.s-1","parameterCategory":2,"la1":30.2991,"la2":30.254,"lo1":-89.0895,"lo2":-89.0444,"dy":0.0017,"dx":0.0017,"nx":28,"ny":28,"refTime":"2026-02-12T03:00:00:Z","depth":"2","parameterNumber":3,"parameterNumberName":"V-component_of_CURRENTS"},"data":[0,0,0,0,0,0,0,0,0,0,0,0,0,0,0,0,0,0,0,0,0,0,0,0,0,0,0,0,0,0,0,0,0,0,0,0,0,0,0,0,0,0,0,0,0,0,0,0,0,0,0,0,0,0,0,0,0,0,-0.0396,-0.0396,0,-0.0336,-0.0336,-0.0335,-0.0291,-0.0291,-0.029,-0.029,-0.0196,-0.0194,-0.0192,0,0,0,0,0,0,0,0,0,0,0,0,0,-0.0422,-0.0422,-0.0396,-0.0396,-0.0395,-0.0336,-0.0336,-0.0335,-0.0291,-0.0291,-0.029,-0.029,-0.0197,-0.0194,-0.0192,0,0,0,0,0,0,0,0,0,0,0,0,0,-0.0391,-0.0422,-0.0396,-0.0367,-0.0364,-0.0337,-0.0336,-0.0334,-0.0291,-0.0291,-0.029,-0.029,-0.0198,-0.0195,-0.0191,-0.018,0,0,-0.0181,-0.018,0,0,0,0,0,0,0,0,-0.0393,-0.039,-0.0372,-0.0369,-0.0365,-0.0321,-0.031,-0.0281,-0.0291,-0.0318,-0.029,-0.0289,-0.0236,-0.0229,-0.0218,-0.0175,-0.0171,-0.0181,-0.0179,-0.0177,-0.0176,0,0,0,0,0,0,0,-0.0395,-0.0392,-0.0372,-0.0371,-0.0367,-0.0339,-0.0335,-0.0304,-0.0279,-0.0315,-0.0312,-0.0307,-0.0234,-0.0222,-0.0216,-0.017,-0.0181,-0.0178,-0.0176,-0.0175,-0.0108,-0.0108,0,0,0,0,0,0,-0.0407,-0.0394,-0.0374,-0.037,-0.0379,-0.0339,-0.0334,-0.0335,-0.028,-0.0271,-0.0307,-0.0305,-0.0228,-0.022,-0.0212,-0.019,-0.0177,-0.0174,-0.0172,-0.0108,-0.0108,-0.0108,0,0,0,0,0,0,-0.0408,-0.0406,-0.0376,-0.0381,-0.0375,-0.034,-0.0341,-0.0334,-0.0322,-0.0274,-0.0265,-0.0302,-0.0227,-0.0217,-0.0187,-0.0186,-0.0173,-0.017,-0.0108,-0.0108,-0.0108,-0.0148,0,0,0,0,0,0,-0.0409,-0.0407,-0.0413,-0.0382,-0.0375,-0.0366,-0.0341,-0.0333,-0.032,-0.0316,-0.0267,-0.0257,-0.0226,-0.0193,-0.0184,-0.0181,-0.0167,-0.0107,-0.0108,-0.0108,-0.0147,-0.015,-0.0153,0,0,0,0,0,-0.0411,-0.0423,-0.0413,-0.0411,-0.0384,-0.0367,-0.0361,-0.0333,-0.032,-0.0319,-0.0284,-0.0259,-0.0189,-0.019,-0.018,-0.0176,-0.0107,-0.0108,-0.0108,-0.0145,-0.0149,-0.0153,0,0,0,0,0,0,-0.0436,-0.0419,-0.0408,-0.0414,-0.0394,-0.036,-0.0356,-0.0338,-0.031,-0.0306,-0.026,-0.0248,-0.0222,-0.0197,-0.0199,-0.0159,-0.0145,-0.0143,-0.0177,-0.018,-0.0183,-0.0193,-0.0164,0,0,0,0,0,-0.0445,-0.045,-0.0425,-0.0429,-0.0422,-0.039,-0.038,-0.0362,-0.0334,-0.0321,-0.0285,-0.0249,-0.0217,-0.0198,-0.0167,-0.0145,-0.0108,-0.0137,-0.014,-0.0143,-0.0145,-0.009,-0.0088,-0.011,-0.011,-0.011,0,0,-0.0455,-0.0447,-0.0449,-0.0435,-0.0417,-0.0414,-0.0383,-0.0372,-0.0365,-0.0315,-0.0295,-0.0259,-0.0215,-0.0189,-0.0175,-0.0166,-0.0117,-0.0144,-0.0146,-0.0147,-0.009,-0.0088,-0.0085,-0.011,-0.011,-0.011,0,0,-0.0482,-0.0472,-0.0486,-0.0474,-0.0456,-0.0434,-0.0435,-0.0404,-0.0384,-0.0363,-0.0323,-0.0287,-0.0243,-0.0205,-0.0182,-0.0184,-0.0137,-0.0178,-0.0197,-0.0143,-0.0141,-0.0138,-0.0088,-0.008,-0.0177,-0.0178,-0.0178,0,-0.0496,-0.051,-0.0486,-0.0495,-0.049,-0.0448,-0.0459,-0.0433,-0.0395,-0.0377,-0.0364,-0.0288,-0.0249,-0.0206,-0.0207,-0.0189,-0.0154,-0.0186,-0.0147,-0.0143,-0.014,-0.0089,-0.008,-0.018,-0.0179,-0.0179,-0.0179,0,-0.0532,-0.0542,-0.0548,-0.0547,-0.0536,-0.0538,-0.0503,-0.0486,-0.0457,-0.0425,-0.038,-0.0324,-0.0278,-0.0259,-0.0232,-0.0191,-0.0172,-0.0158,-0.0137,-0.014,-0.0086,-0.0076,-0.0182,-0.0182,-0.0181,-0.0181,0,0,-0.0567,-0.0575,-0.0577,-0.0588,-0.0566,-0.0563,-0.0547,-0.0517,-0.0503,-0.0455,-0.0428,-0.0364,-0.0328,-0.0299,-0.0254,-0.0204,-0.0147,-0.0177,-0.0173,-0.0127,-0.0029,0.0002,0.0016,-0.0126,-0.0124,-0.0123,-0.0001,0,-0.0603,-0.0642,-0.0627,-0.0651,-0.0667,-0.0625,-0.0614,-0.0578,-0.0535,-0.0497,-0.0423,-0.0382,-0.0344,-0.032,-0.0265,-0.0178,-0.0124,-0.0182,-0.0034,-0.0029,-0.0001,0.0028,0.0006,0.0114,0.0009,0.0011,0.0012,0,-0.0644,-0.0665,-0.0704,-0.071,-0.0711,-0.0713,-0.0684,-0.0667,-0.0596,-0.0561,-0.0499,-0.0438,-0.0357,-0.0328,-0.0177,-0.0217,-0.0131,-0.006,-0.0053,-0.0003,0.0021,0.01,0.0137,0.0029,0.0028,0.0026,0.0025,0,-0.069,-0.0716,-0.0751,-0.0755,-0.0753,-0.0754,-0.0743,-0.0689,-0.0672,-0.0596,-0.057,-0.0467,-0.0409,-0.0294,-0.0148,-0.0161,0.0023,0.0026,0.0139,0.0143,0.0164,0.0166,0.0136,0.0136,0.0136,0.0135,0.0135,0,-0.0739,-0.0765,-0.0779,-0.0801,-0.0834,-0.0807,-0.0816,-0.0784,-0.0733,-0.0709,-0.0609,-0.0559,-0.0397,-0.0272,-0.0151,0.003,0.0025,0.0147,0.0181,0.0149,0.0148,0.0102,0.0096,0.014,0.0139,0.0138,0.0137,0,-0.0786,-0.0795,-0.084,-0.0856,-0.0862,-0.0885,-0.088,-0.0878,-0.0819,-0.0782,-0.0759,-0.0616,-0.0446,-0.0275,-0.0069,0.0033,0.0196,0.0262,0.0212,0.0239,0.0279,0.027,0.0397,0.04,0.0402,0.0403,0.0404,0,-0.0813,-0.0844,-0.089,-0.0923,-0.0935,-0.096,-0.0974,-0.0932,-0.0921,-0.0813,-0.0795,-0.0622,-0.0487,-0.0172,0.0043,0.0275,0.0267,0.0383,0.0357,0.0288,0.0309,0.0296,0.0285,0.0372,0.0372,0.0373,0.0374,0,-0.0863,-0.0881,-0.0919,-0.0992,-0.1027,-0.1058,-0.1068,-0.1075,-0.1007,-0.0945,-0.0825,-0.0702,-0.0392,-0.013,0.0169,0.0297,0.034,0.0406,0.0368,0.0301,0.0272,0.0289,0.0277,0.0381,0.038,0.038,0.0379,0.0379,-0.0892,-0.0938,-0.0992,-0.1055,-0.11,-0.1139,-0.1153,-0.113,-0.1092,-0.097,-0.0855,-0.0629,-0.0387,0.0053,0.0254,0.0443,0.0433,0.0478,0.0472,0.0467,0.0434,0.0409,0.0538,0.0538,0.0538,0.0539,0.0539,0,-0.0927,-0.0979,-0.1049,-0.1122,-0.1175,-0.1181,-0.1197,-0.1169,-0.1105,-0.0956,-0.0799,-0.05,-0.0202,0.0052,0.0357,0.0529,0.0506,0.0554,0.0485,0.0478,0.0472,0.0436,0.0543,0.0543,0.0543,0.0544,0,0,-0.0947,-0.1022,-0.1062,-0.116,-0.1209,-0.1241,-0.1243,-0.1165,-0.1049,-0.0878,-0.0697,-0.0477,-0.0175,0.0038,0.0251,0.0409,0.0399,0.0425,0.0405,0.0292,0.0283,0.0413,0.035,0,0,0,0,0]}],[{"header":{"parameterUnit":"m.s-1","parameterCategory":2,"la1":30.2991,"la2":30.254,"lo1":-89.0895,"lo2":-89.0444,"dy":0.0017,"dx":0.0017,"nx":28,"ny":28,"refTime":"2026-02-12T03:00:00:Z","depth":"4","parameterNumber":2,"parameterNumberName":"U-component_of_CURRENTS"},"data":[0,0,0,0,0,0,0,0,0,0,0,0,0,0,0,0,0,0,0,0,0,0,0,0,0,0,0,0,0,0,0,0,0,0,0,0,0,0,0,0,0,0,0,0,0,0,0,0,0,0,0,0,0,0,0,0,0,0,-0.1608,-0.1609,0,-0.1672,-0.1672,-0.1673,-0.1708,-0.1708,-0.1708,-0.1708,-0.1775,-0.1777,-0.1778,0,0,0,0,0,0,0,0,0,0,0,0,0,-0.1524,-0.1525,-0.1608,-0.1609,-0.161,-0.1671,-0.1672,-0.1673,-0.1708,-0.1708,-0.1708,-0.1709,-0.1775,-0.1776,-0.1778,0,0,0,0,0,0,0,0,0,0,0,0,0,-0.157,-0.1525,-0.1608,-0.1636,-0.1639,-0.1671,-0.1672,-0.1673,-0.1708,-0.1708,-0.1708,-0.1709,-0.1774,-0.1776,-0.1779,-0.1786,0,0,-0.1786,-0.1787,0,0,0,0,0,0,0,0,-0.1567,-0.1573,-0.1631,-0.1634,-0.1638,-0.1683,-0.1667,-0.1712,-0.1708,-0.168,-0.1709,-0.1709,-0.1745,-0.175,-0.1759,-0.179,-0.1792,-0.1786,-0.1787,-0.1788,-0.1789,0,0,0,0,0,0,0,-0.1564,-0.157,-0.1632,-0.1632,-0.1636,-0.1647,-0.1654,-0.1676,-0.1709,-0.1683,-0.1686,-0.1695,-0.1747,-0.1757,-0.1761,-0.1793,-0.1786,-0.1788,-0.1789,-0.179,-0.1891,-0.1892,0,0,0,0,0,0,-0.1558,-0.1567,-0.163,-0.1634,-0.1604,-0.1649,-0.1656,-0.1667,-0.1709,-0.1716,-0.1694,-0.1696,-0.1753,-0.1758,-0.1764,-0.1838,-0.1788,-0.1791,-0.1792,-0.189,-0.1891,-0.1893,0,0,0,0,0,0,-0.1556,-0.1563,-0.1627,-0.1603,-0.1612,-0.165,-0.1662,-0.1668,-0.1705,-0.1718,-0.1725,-0.1728,-0.1753,-0.176,-0.1806,-0.1838,-0.1792,-0.1794,-0.1888,-0.189,-0.1892,-0.1946,0,0,0,0,0,0,-0.1553,-0.1562,-0.1582,-0.1602,-0.1613,-0.1665,-0.1662,-0.1669,-0.1709,-0.1713,-0.1749,-0.1753,-0.1754,-0.1803,-0.1809,-0.1841,-0.1796,-0.1887,-0.1889,-0.1891,-0.1943,-0.1949,-0.1955,0,0,0,0,0,-0.155,-0.1571,-0.1582,-0.1591,-0.1634,-0.1666,-0.1673,-0.1699,-0.1711,-0.1733,-0.1757,-0.1754,-0.1822,-0.1806,-0.1812,-0.1846,-0.1886,-0.1888,-0.1891,-0.194,-0.1948,-0.1955,0,0,0,0,0,0,-0.1546,-0.1578,-0.159,-0.1621,-0.165,-0.1673,-0.17,-0.1716,-0.1753,-0.1765,-0.1773,-0.178,-0.1832,-0.1831,-0.1814,-0.1881,-0.1852,-0.1856,-0.1887,-0.1895,-0.1901,-0.1895,-0.1798,0,0,0,0,0,-0.1554,-0.1579,-0.1608,-0.1635,-0.1653,-0.1682,-0.1704,-0.1723,-0.1752,-0.177,-0.1796,-0.1821,-0.1844,-0.1864,-0.1885,-0.1925,-0.1903,-0.1949,-0.1955,-0.1961,-0.196,-0.1957,-0.1963,-0.1902,-0.1902,-0.1902,0,0,-0.1561,-0.1581,-0.1598,-0.1637,-0.1663,-0.1695,-0.1697,-0.174,-0.1773,-0.1771,-0.1833,-0.1849,-0.1861,-0.1904,-0.1927,-0.1911,-0.1966,-0.1964,-0.1969,-0.1965,-0.196,-0.1966,-0.1971,-0.1904,-0.1904,-0.1903,0,0,-0.1577,-0.1607,-0.1632,-0.166,-0.1705,-0.1724,-0.1743,-0.1785,-0.1814,-0.1866,-0.1873,-0.1907,-0.1952,-0.1962,-0.1971,-0.2025,-0.2001,-0.2039,-0.2068,-0.2066,-0.2071,-0.2074,-0.2048,-0.2049,-0.2041,-0.2041,-0.2041,0,-0.1588,-0.1619,-0.1645,-0.1676,-0.1705,-0.174,-0.1775,-0.1809,-0.1863,-0.1886,-0.1896,-0.196,-0.1976,-0.2013,-0.2034,-0.204,-0.2026,-0.2039,-0.2073,-0.2077,-0.208,-0.2052,-0.2052,-0.2044,-0.2044,-0.2043,-0.2043,0,-0.1611,-0.1651,-0.167,-0.1719,-0.1755,-0.1793,-0.1837,-0.1883,-0.1922,-0.1947,-0.2006,-0.2028,-0.2059,-0.2075,-0.2075,-0.211,-0.2088,-0.2082,-0.2051,-0.2089,-0.2057,-0.2056,-0.2048,-0.2047,-0.2046,-0.2045,0,0,-0.1593,-0.1672,-0.1682,-0.1713,-0.1782,-0.1809,-0.1874,-0.1928,-0.1966,-0.2021,-0.2061,-0.2112,-0.2121,-0.2131,-0.2139,-0.2144,-0.2155,-0.2129,-0.2127,-0.2097,-0.2135,-0.1996,-0.1982,-0.2158,-0.2159,-0.2159,-0.2102,0,-0.1606,-0.1664,-0.1705,-0.1771,-0.1803,-0.1861,-0.1912,-0.1969,-0.2017,-0.2066,-0.2095,-0.2138,-0.2143,-0.2163,-0.2172,-0.2165,-0.2158,-0.217,-0.2107,-0.2105,-0.1973,-0.1978,-0.216,-0.2101,-0.2101,-0.21,-0.21,0,-0.1606,-0.1648,-0.1711,-0.1792,-0.1813,-0.1862,-0.1944,-0.1997,-0.2067,-0.2103,-0.2148,-0.2169,-0.22,-0.2193,-0.2191,-0.22,-0.2172,-0.2157,-0.2154,-0.2003,-0.1965,-0.2057,-0.2099,-0.2099,-0.2099,-0.2099,-0.2099,0,-0.1558,-0.1649,-0.1699,-0.1729,-0.1827,-0.1872,-0.1929,-0.2008,-0.205,-0.2127,-0.2155,-0.2195,-0.2215,-0.2203,-0.218,-0.219,-0.2152,-0.2156,-0.1998,-0.1987,-0.2107,-0.2103,-0.2136,-0.2136,-0.2136,-0.2136,-0.2136,0,-0.1532,-0.1577,-0.1687,-0.1713,-0.1777,-0.1856,-0.1924,-0.1986,-0.2064,-0.2093,-0.2169,-0.218,-0.2221,-0.2207,-0.2179,-0.2074,-0.2147,-0.1991,-0.1961,-0.213,-0.213,-0.2105,-0.2103,-0.2134,-0.2134,-0.2135,-0.2135,0,-0.1462,-0.1539,-0.1601,-0.1715,-0.1754,-0.1799,-0.1913,-0.1948,-0.2042,-0.2081,-0.2104,-0.2172,-0.2147,-0.2152,-0.2122,-0.205,-0.1979,-0.1921,-0.2085,-0.2068,-0.1815,-0.1817,-0.1734,-0.1729,-0.1724,-0.172,-0.1717,0,-0.1426,-0.1453,-0.1582,-0.1617,-0.1673,-0.1757,-0.1801,-0.1918,-0.1947,-0.2047,-0.204,-0.2068,-0.2087,-0.1921,-0.1956,-0.187,-0.185,-0.1799,-0.1821,-0.1793,-0.1774,-0.1782,-0.1789,-0.171,-0.1709,-0.1707,-0.1706,0,-0.1349,-0.141,-0.146,-0.1532,-0.1593,-0.1649,-0.1724,-0.1731,-0.1842,-0.1949,-0.1909,-0.1882,-0.1848,-0.1814,-0.1756,-0.1704,-0.1829,-0.1751,-0.1761,-0.1781,-0.1763,-0.175,-0.1762,-0.169,-0.1693,-0.1694,-0.1695,0,-0.1289,-0.1303,-0.1374,-0.1419,-0.1492,-0.1504,-0.1567,-0.1588,-0.1632,-0.1746,-0.1725,-0.1756,-0.1822,-0.1725,-0.1675,-0.1609,-0.1587,-0.1534,-0.1554,-0.1572,-0.1546,-0.1502,-0.1309,0,0,0,0,0,-0.1216,-0.1213,-0.1251,-0.1293,-0.1357,-0.1393,-0.149,-0.1554,-0.1665,-0.1585,-0.1649,-0.1606,-0.154,-0.1565,-0.1457,-0.16,-0.1595,-0.147,-0.1546,-0.1602,-0.162,-0.1605,0,0,0,0,0,0,-0.1167,-0.1197,-0.1204,-0.1168,-0.1169,-0.1221,-0.1273,-0.1355,-0.1323,-0.1441,-0.1409,-0.1498,-0.1455,-0.1561,-0.1419,-0.1423,-0.1433,-0.1501,-0.1496,-0.1591,-0.1608,-0.1623,-0.1614,0,0,0,0,0]},{"header":{"parameterUnit":"m.s-1","parameterCategory":2,"la1":30.2991,"la2":30.254,"lo1":-89.0895,"lo2":-89.0444,"dy":0.0017,"dx":0.0017,"nx":28,"ny":28,"refTime":"2026-02-12T03:00:00:Z","depth":"4","parameterNumber":3,"parameterNumberName":"V-component_of_CURRENTS"},"data":[0,0,0,0,0,0,0,0,0,0,0,0,0,0,0,0,0,0,0,0,0,0,0,0,0,0,0,0,0,0,0,0,0,0,0,0,0,0,0,0,0,0,0,0,0,0,0,0,0,0,0,0,0,0,0,0,0,0,-0.0317,-0.0317,0,-0.0284,-0.0283,-0.0283,-0.0257,-0.0257,-0.0256,-0.0256,-0.0192,-0.019,-0.0188,0,0,0,0,0,0,0,0,0,0,0,0,0,-0.032,-0.032,-0.0317,-0.0317,-0.0316,-0.0284,-0.0283,-0.0283,-0.0257,-0.0257,-0.0256,-0.0256,-0.0192,-0.019,-0.0188,0,0,0,0,0,0,0,0,0,0,0,0,0,-0.0305,-0.032,-0.0317,-0.03,-0.0298,-0.0284,-0.0283,-0.0282,-0.0257,-0.0257,-0.0256,-0.0256,-0.0193,-0.019,-0.0188,-0.0179,0,0,-0.0181,-0.018,0,0,0,0,0,0,0,0,-0.0306,-0.0305,-0.0303,-0.0301,-0.0299,-0.0275,-0.026,-0.0247,-0.0257,-0.0272,-0.0256,-0.0256,-0.0217,-0.0213,-0.0206,-0.0176,-0.0173,-0.0181,-0.0179,-0.0178,-0.0178,0,0,0,0,0,0,0,-0.0307,-0.0306,-0.0303,-0.0303,-0.03,-0.0281,-0.0279,-0.0258,-0.0245,-0.027,-0.0269,-0.0266,-0.0216,-0.0209,-0.0205,-0.0172,-0.0181,-0.0179,-0.0177,-0.0176,-0.0134,-0.0135,0,0,0,0,0,0,-0.0315,-0.0308,-0.0304,-0.0302,-0.0303,-0.0281,-0.0279,-0.0282,-0.0246,-0.0241,-0.0266,-0.0265,-0.0213,-0.0207,-0.0202,-0.0192,-0.0178,-0.0176,-0.0175,-0.0134,-0.0134,-0.0135,0,0,0,0,0,0,-0.0316,-0.0316,-0.0305,-0.0304,-0.0302,-0.0282,-0.0286,-0.0282,-0.0278,-0.0244,-0.0237,-0.0267,-0.0212,-0.0206,-0.0188,-0.0189,-0.0175,-0.0173,-0.0134,-0.0134,-0.0135,-0.0169,0,0,0,0,0,0,-0.0316,-0.0316,-0.0324,-0.0305,-0.0302,-0.0304,-0.0286,-0.0281,-0.0277,-0.0275,-0.0242,-0.0235,-0.0212,-0.0192,-0.0186,-0.0185,-0.0171,-0.0133,-0.0134,-0.0135,-0.0167,-0.017,-0.0173,0,0,0,0,0,-0.0316,-0.0329,-0.0324,-0.0324,-0.0313,-0.0304,-0.0301,-0.0285,-0.0277,-0.028,-0.0256,-0.0237,-0.0191,-0.019,-0.0183,-0.0182,-0.0133,-0.0134,-0.0134,-0.0166,-0.017,-0.0173,0,0,0,0,0,0,-0.0334,-0.0327,-0.0322,-0.0332,-0.0322,-0.03,-0.0302,-0.029,-0.0275,-0.0273,-0.0239,-0.0231,-0.0217,-0.0197,-0.0197,-0.0172,-0.0159,-0.0158,-0.0186,-0.0189,-0.0192,-0.0197,-0.0169,0,0,0,0,0,-0.0342,-0.0351,-0.0337,-0.0346,-0.0343,-0.0324,-0.0319,-0.0309,-0.0292,-0.0285,-0.0261,-0.0236,-0.0214,-0.02,-0.018,-0.0165,-0.0132,-0.0161,-0.0164,-0.0166,-0.0167,-0.0116,-0.0114,-0.0137,-0.0137,-0.0137,0,0,-0.0351,-0.0349,-0.0354,-0.035,-0.0341,-0.0343,-0.032,-0.0319,-0.0318,-0.028,-0.0272,-0.0246,-0.0213,-0.0198,-0.0189,-0.018,-0.0143,-0.0167,-0.0169,-0.0168,-0.0117,-0.0114,-0.0112,-0.0137,-0.0137,-0.0137,0,0,-0.0374,-0.0372,-0.0386,-0.0382,-0.0375,-0.0362,-0.0364,-0.0347,-0.0336,-0.0327,-0.0297,-0.0271,-0.0244,-0.0214,-0.0196,-0.0202,-0.0162,-0.02,-0.0215,-0.0166,-0.0163,-0.0161,-0.0117,-0.011,-0.0199,-0.0199,-0.0199,0,-0.0386,-0.0401,-0.0388,-0.0399,-0.0399,-0.0374,-0.0386,-0.0371,-0.035,-0.0338,-0.0331,-0.0278,-0.025,-0.0217,-0.022,-0.0207,-0.0176,-0.0204,-0.0169,-0.0165,-0.0162,-0.0117,-0.0109,-0.0201,-0.0201,-0.02,-0.02,0,-0.0415,-0.0428,-0.0436,-0.0442,-0.0439,-0.0446,-0.0426,-0.0419,-0.0403,-0.0381,-0.0351,-0.031,-0.0276,-0.0263,-0.0243,-0.0207,-0.0192,-0.018,-0.0159,-0.0162,-0.0115,-0.0106,-0.0203,-0.0203,-0.0202,-0.0202,0,0,-0.0437,-0.0455,-0.0458,-0.0471,-0.0464,-0.0467,-0.0462,-0.0446,-0.044,-0.0408,-0.0391,-0.0344,-0.0317,-0.0295,-0.026,-0.0216,-0.0165,-0.0193,-0.0189,-0.0148,-0.0059,-0.0064,-0.0054,-0.0146,-0.0144,-0.0143,-0.0035,0,-0.0464,-0.0501,-0.0496,-0.0525,-0.054,-0.0518,-0.0516,-0.0496,-0.0469,-0.0444,-0.0387,-0.0359,-0.033,-0.0313,-0.0265,-0.0192,-0.0143,-0.0195,-0.0064,-0.006,-0.0063,-0.0045,-0.0139,-0.0028,-0.0026,-0.0025,-0.0024,0,-0.0492,-0.0515,-0.0553,-0.0571,-0.0575,-0.0586,-0.0575,-0.0569,-0.0521,-0.0497,-0.0451,-0.0405,-0.0338,-0.0314,-0.0185,-0.0221,-0.0145,-0.0084,-0.0078,-0.0065,-0.0049,-0.0024,-0.0007,-0.0008,-0.0009,-0.001,-0.0011,0,-0.0519,-0.0552,-0.0587,-0.0595,-0.0608,-0.0619,-0.062,-0.0588,-0.0582,-0.0528,-0.0511,-0.0426,-0.0381,-0.028,-0.016,-0.0169,-0.0012,-0.0006,0.0065,0.0066,0.0054,0.005,0.0094,0.0093,0.0093,0.0093,0.0093,0,-0.0546,-0.0575,-0.0608,-0.0629,-0.0668,-0.0659,-0.0681,-0.0663,-0.0633,-0.0619,-0.0544,-0.0505,-0.0369,-0.0265,-0.0161,-0.0021,-0.0008,0.0069,0.0096,0.0036,0.0029,0.0061,0.0055,0.0097,0.0096,0.0095,0.0095,0,-0.0566,-0.0588,-0.0636,-0.0671,-0.0686,-0.0714,-0.0736,-0.0741,-0.0706,-0.0684,-0.0667,-0.0555,-0.0417,-0.0275,-0.0097,-0.0023,0.0111,0.0161,0.0088,0.0108,0.0156,0.0148,0.0247,0.0248,0.0248,0.0249,0.0249,0,-0.0577,-0.0606,-0.0674,-0.0712,-0.0735,-0.0775,-0.0799,-0.0784,-0.078,-0.0709,-0.0693,-0.0561,-0.0472,-0.0218,-0.0079,0.0127,0.0153,0.0217,0.0185,0.0157,0.0174,0.0164,0.0155,0.025,0.025,0.0251,0.0251,0,-0.0597,-0.0629,-0.0669,-0.0752,-0.08,-0.0843,-0.0869,-0.0872,-0.0836,-0.0808,-0.0691,-0.0555,-0.0395,-0.021,-0.0046,0.0097,0.0168,0.0224,0.0224,0.0194,0.0163,0.0176,0.0166,0.0253,0.0253,0.0252,0.0252,0,-0.0609,-0.0648,-0.0712,-0.0778,-0.0846,-0.0885,-0.09,-0.0875,-0.0859,-0.0769,-0.073,-0.0551,-0.0442,-0.0224,-0.0076,0.0065,0.0093,0.0126,0.0131,0.013,0.0056,-0.0004,0.0066,0,0,0,0,0,-0.0614,-0.0662,-0.0731,-0.0805,-0.0872,-0.0904,-0.0931,-0.0929,-0.0896,-0.0814,-0.0766,-0.0609,-0.0369,-0.0262,-0.0119,-0.0087,0.0097,0.0082,0.0131,0.0265,0.0263,0.0194,0,0,0,0,0,0,-0.0621,-0.0689,-0.0728,-0.0808,-0.0859,-0.092,-0.0938,-0.0918,-0.0859,-0.0805,-0.0669,-0.0586,-0.0351,-0.0444,-0.0117,-0.0075,-0.0028,0.02,0.0202,0.0267,0.0264,0.0262,0.019,0,0,0,0,0]}]]